When you browse on this site, cookies collect data to enhance your experience and personalize the content and advertising you see.
Visit our Privacy Policy to learn more. By continuing to use the site, you agree to this use of cookies and data.
  • In Deutschland
  • Länderverzeichnis
  • Für 7 Tage
  • Wassertemperatur
  • Satellitenkarten
  • Wetterkarte
  • Widgets
  • user-avatar
    Anmelden

    Stündliche Wetter Constantine

    Heute, 17 Juni, Montag

    Zeit Temperatur Niederschläge Wind Luftdruck Luftfeuchtigkeit
    00:00 +21°C° 0.2 mm 1 m/S 709 mmHg 74%
    01:00 +20°C° 0.1 mm 1 m/S 709 mmHg 77%
    02:00 +20°C° 0.1 mm 1 m/S 709 mmHg 80%
    03:00 +18°C° 0.1 mm 2 m/S 709 mmHg 82%
    04:00 +19°C° 0.1 mm 2 m/S 709 mmHg 81%
    05:00 +19°C° 0.1 mm 2 m/S 709 mmHg 79%
    06:00 +19°C° 0.1 mm 2 m/S 709 mmHg 78%
    07:00 +20°C° 0.6 mm 2 m/S 710 mmHg 69%
    08:00 +23°C° 0.6 mm 2 m/S 710 mmHg 61%
    09:00 +25°C° 0.6 mm 2 m/S 710 mmHg 53%
    10:00 +25°C° 0.7 mm 2 m/S 710 mmHg 51%
    11:00 +26°C° 0.7 mm 3 m/S 710 mmHg 49%
    12:00 +27°C° 0.7 mm 4 m/S 710 mmHg 48%
    13:00 +27°C° 0 mm 4 m/S 710 mmHg 47%
    14:00 +27°C° 0 mm 5 m/S 710 mmHg 47%
    15:00 +27°C° 0 mm 5 m/S 709 mmHg 47%
    16:00 +26°C° 0 mm 5 m/S 709 mmHg 49%
    17:00 +25°C° 0 mm 4 m/S 709 mmHg 50%
    18:00 +24°C° 0 mm 3 m/S 710 mmHg 52%
    19:00 +23°C° 0 mm 2 m/S 710 mmHg 55%
    20:00 +20°C° 0 mm 2 m/S 710 mmHg 59%
    21:00 +20°C° 0 mm 1 m/S 710 mmHg 62%
    22:00 +18°C° 0 mm 0 m/S 710 mmHg 62%
    23:00 +18°C° 0 mm 0 m/S 710 mmHg 63%

    Morgen, 18 Juni, Dienstag

    Zeit Temperatur Niederschläge Wind Luftdruck Luftfeuchtigkeit
    00:00 +17°C° 0 mm 0 m/S 710 mmHg 63%
    01:00 +17°C° 0 mm 0 m/S 709 mmHg 63%
    02:00 +17°C° 0 mm 0 m/S 709 mmHg 62%
    03:00 +17°C° 0 mm 0 m/S 709 mmHg 62%
    04:00 +17°C° 0 mm 0 m/S 709 mmHg 59%
    05:00 +18°C° 0 mm 0 m/S 710 mmHg 55%
    06:00 +19°C° 0 mm 0 m/S 710 mmHg 52%
    07:00 +23°C° 0 mm 1 m/S 710 mmHg 46%
    08:00 +25°C° 0 mm 1 m/S 711 mmHg 41%
    09:00 +28°C° 0 mm 1 m/S 711 mmHg 36%
    10:00 +29°C° 0 mm 2 m/S 711 mmHg 34%
    11:00 +30°C° 0 mm 2 m/S 711 mmHg 32%
    12:00 +33°C° 0 mm 3 m/S 711 mmHg 30%
    13:00 +33°C° 0 mm 3 m/S 711 mmHg 29%
    14:00 +33°C° 0 mm 4 m/S 710 mmHg 29%
    15:00 +34°C° 0 mm 5 m/S 710 mmHg 29%
    16:00 +32°C° 0 mm 4 m/S 710 mmHg 34%
    17:00 +29°C° 0 mm 3 m/S 710 mmHg 39%
    18:00 +27°C° 0 mm 3 m/S 710 mmHg 44%
    19:00 +26°C° 0 mm 2 m/S 710 mmHg 47%
    20:00 +25°C° 0 mm 1 m/S 710 mmHg 51%
    21:00 +24°C° 0 mm 1 m/S 710 mmHg 54%
    22:00 +22°C° 0 mm 0 m/S 710 mmHg 54%
    23:00 +21°C° 0 mm 0 m/S 710 mmHg 53%

    übermorgen, 19 Juni, Mittwoch

    Zeit Temperatur Niederschläge Wind Luftdruck Luftfeuchtigkeit
    00:00 +21°C° 0 mm 0 m/S 710 mmHg 53%
    01:00 +23°C° 0 mm 1 m/S 709 mmHg 52%
    02:00 +23°C° 0 mm 1 m/S 709 mmHg 51%
    03:00 +23°C° 0 mm 1 m/S 709 mmHg 50%
    04:00 +24°C° 0 mm 1 m/S 709 mmHg 48%
    05:00 +26°C° 0 mm 1 m/S 710 mmHg 45%
    06:00 +27°C° 0 mm 1 m/S 710 mmHg 43%
    07:00 +29°C° 0 mm 2 m/S 711 mmHg 36%
    08:00 +33°C° 0 mm 4 m/S 711 mmHg 30%
    09:00 +35°C° 0 mm 5 m/S 712 mmHg 23%
    10:00 +36°C° 0 mm 4 m/S 712 mmHg 22%
    11:00 +37°C° 0 mm 4 m/S 712 mmHg 20%
    12:00 +38°C° 0 mm 4 m/S 712 mmHg 19%
    13:00 +38°C° 0 mm 4 m/S 711 mmHg 20%
    14:00 +38°C° 0 mm 4 m/S 711 mmHg 21%
    15:00 +39°C° 0 mm 5 m/S 710 mmHg 23%
    16:00 +36°C° 0 mm 4 m/S 710 mmHg 28%
    17:00 +34°C° 0 mm 3 m/S 710 mmHg 33%
    18:00 +30°C° 0 mm 3 m/S 710 mmHg 38%
    19:00 +29°C° 0 mm 2 m/S 710 mmHg 41%
    20:00 +28°C° 0 mm 1 m/S 710 mmHg 44%
    21:00 +24°C° 0 mm 0 m/S 710 mmHg 47%
    22:00 +26°C° 0 mm 1 m/S 710 mmHg 47%
    23:00 +26°C° 0 mm 1 m/S 709 mmHg 47%

    20 Juni, Donnerstag

    Zeit Temperatur Niederschläge Wind Luftdruck Luftfeuchtigkeit
    00:00 +26°C° 0 mm 1 m/S 709 mmHg 47%
    01:00 +26°C° 0 mm 1 m/S 709 mmHg 46%
    02:00 +27°C° 0 mm 1 m/S 709 mmHg 45%
    03:00 +27°C° 0 mm 1 m/S 709 mmHg 44%
    04:00 +28°C° 0 mm 1 m/S 709 mmHg 42%
    05:00 +29°C° 0 mm 1 m/S 709 mmHg 40%
    06:00 +29°C° 0 mm 1 m/S 710 mmHg 38%
    07:00 +32°C° 0 mm 1 m/S 710 mmHg 33%
    08:00 +34°C° 0 mm 1 m/S 711 mmHg 27%
    09:00 +36°C° 0 mm 1 m/S 711 mmHg 22%
    10:00 +38°C° 0 mm 2 m/S 711 mmHg 19%
    11:00 +39°C° 0 mm 3 m/S 711 mmHg 17%
    12:00 +42°C° 0 mm 3 m/S 711 mmHg 15%
    13:00 +41°C° 0 mm 4 m/S 711 mmHg 16%
    14:00 +41°C° 0 mm 4 m/S 710 mmHg 18%
    15:00 +41°C° 0 mm 5 m/S 710 mmHg 19%
    16:00 +38°C° 0 mm 4 m/S 710 mmHg 24%
    17:00 +36°C° 0 mm 3 m/S 710 mmHg 28%
    18:00 +34°C° 0 mm 2 m/S 710 mmHg 33%
    19:00 +33°C° 0 mm 3 m/S 710 mmHg 34%
    20:00 +31°C° 0 mm 3 m/S 710 mmHg 36%
    21:00 +29°C° 0 mm 3 m/S 710 mmHg 37%
    22:00 +29°C° 0 mm 3 m/S 709 mmHg 37%
    23:00 +28°C° 0 mm 3 m/S 709 mmHg 38%

    21 Juni, Freitag

    Zeit Temperatur Niederschläge Wind Luftdruck Luftfeuchtigkeit
    00:00 +28°C° 0 mm 2 m/S 708 mmHg 38%
    01:00 +28°C° 0 mm 2 m/S 708 mmHg 37%
    02:00 +28°C° 0 mm 2 m/S 708 mmHg 35%
    03:00 +28°C° 0 mm 2 m/S 708 mmHg 33%
    04:00 +28°C° 0 mm 2 m/S 708 mmHg 33%
    05:00 +29°C° 0 mm 2 m/S 709 mmHg 33%
    06:00 +30°C° 0 mm 1 m/S 709 mmHg 33%
    07:00 +32°C° 0 mm 2 m/S 710 mmHg 30%
    08:00 +35°C° 0 mm 3 m/S 710 mmHg 27%
    09:00 +36°C° 0 mm 4 m/S 711 mmHg 24%
    10:00 +39°C° 0 mm 5 m/S 711 mmHg 21%
    11:00 +41°C° 0 mm 5 m/S 711 mmHg 18%
    12:00 +42°C° 0 mm 6 m/S 711 mmHg 14%
    13:00 +42°C° 0 mm 6 m/S 711 mmHg 15%
    14:00 +42°C° 0 mm 6 m/S 710 mmHg 16%
    15:00 +42°C° 0 mm 6 m/S 710 mmHg 17%
    16:00 +38°C° 0 mm 4 m/S 710 mmHg 24%
    17:00 +36°C° 0 mm 3 m/S 709 mmHg 31%
    18:00 +34°C° 0 mm 2 m/S 709 mmHg 38%
    19:00 +31°C° 0 mm 2 m/S 709 mmHg 40%
    20:00 +29°C° 0 mm 3 m/S 709 mmHg 43%
    21:00 +28°C° 0 mm 3 m/S 709 mmHg 45%
    22:00 +27°C° 0 mm 3 m/S 709 mmHg 46%
    23:00 +27°C° 0 mm 2 m/S 709 mmHg 48%

    22 Juni, Samstag

    Zeit Temperatur Niederschläge Wind Luftdruck Luftfeuchtigkeit
    00:00 +26°C° 0 mm 2 m/S 708 mmHg 49%
    01:00 +26°C° 0 mm 2 m/S 708 mmHg 48%
    02:00 +26°C° 0 mm 2 m/S 708 mmHg 47%
    03:00 +26°C° 0 mm 2 m/S 708 mmHg 46%
    04:00 +26°C° 0 mm 1 m/S 709 mmHg 46%
    05:00 +26°C° 0 mm 1 m/S 709 mmHg 46%
    06:00 +25°C° 0 mm 0 m/S 710 mmHg 46%
    07:00 +30°C° 0 mm 1 m/S 710 mmHg 38%
    08:00 +34°C° 0 mm 2 m/S 711 mmHg 29%
    09:00 +38°C° 0 mm 3 m/S 711 mmHg 21%
    10:00 +40°C° 0 mm 4 m/S 711 mmHg 18%
    11:00 +42°C° 0 mm 5 m/S 712 mmHg 15%
    12:00 +43°C° 0 mm 5 m/S 712 mmHg 13%
    13:00 +43°C° 0 mm 5 m/S 711 mmHg 16%
    14:00 +42°C° 0 mm 5 m/S 711 mmHg 19%
    15:00 +41°C° 0 mm 4 m/S 711 mmHg 23%
    16:00 +38°C° 0 mm 4 m/S 710 mmHg 29%
    17:00 +36°C° 0 mm 3 m/S 710 mmHg 36%
    18:00 +32°C° 0 mm 2 m/S 710 mmHg 42%
    19:00 +31°C° 0 mm 2 m/S 710 mmHg 43%
    20:00 +30°C° 0 mm 2 m/S 710 mmHg 44%
    21:00 +29°C° 0 mm 1 m/S 710 mmHg 45%
    22:00 +30°C° 0 mm 2 m/S 710 mmHg 37%
    23:00 +30°C° 0 mm 2 m/S 710 mmHg 30%
    Mehr zeigen